Weather History for KPIE - January, 2001

Change the Weather History Date:

Tuesday, January 2, 2001

  Actual Average Record
Temperature  
Mean Temperature 48 °F -  
Max Temperature 53 °F 71 °F 83 °F (1985)
Min Temperature 44 °F 56 °F 37 °F (2008)
Degree Days  
Heating Degree Days 16    
Moisture  
Dew Point 34 °F    
Average Humidity 60    
Maximum Humidity 74    
Minimum Humidity 43    
Precipitation  
Precipitation 0.00 in - - ()
Sea Level Pressure  
Sea Level Pressure 30.40 in    
Wind  
Wind Speed 9 mph (NNE)    
Max Wind Speed 15 mph    
Max Gust Speed -    
Visibility 10 miles    
Events      
Averages and records for this station are not official NWS values.
T = Trace of Precipitation, MM = Missing Value Source: NWS Daily Summary

Daily Weather History Graph

Daily Weather History Graph

Search for Another Location

Airport or City:

Trip Planner

Search our weather history database for the weather conditions in past years. The results will help you decide how hot, cold, wet, or windy it might be!

Date:

Astronomy

Jan. 02, 2001 Rise Set
Actual Time 7:22 AM EST 5:47 PM EST
Civil Twilight 6:56 AM EST 6:13 PM EST
Nautical Twilight 6:27 AM EST 6:42 PM EST
Astronomical Twilight 5:58 AM EST 7:11 PM EST
Moon 12:27 PM EST (1/2) No Moon Set
Length of Visible Light 11h 16m
Length of Day
10h 25m
Waxing Crescent, 48% of the Moon is Illuminated
Jan 2
Waxing Crescent
Jan 2
First Quarter
Jan 9
Full
Jan 16
Last Quarter
Jan 24
New

Hourly Weather History & Observations

Time (EST) Temp. Windchill Dew Point Humidity Pressure Visibility Wind Dir Wind Speed Gust Speed Precip Events Conditions
12:53 AM 46.9 °F - 39.0 °F 74% 30.36 in 10.0 mi North 9.2 mph - N/A   Clear
1:53 AM 46.9 °F - 36.0 °F 66% 30.35 in 10.0 mi NNE 8.1 mph - N/A   Mostly Cloudy
2:53 AM 46.0 °F 42.5 °F 37.0 °F 71% 30.34 in 10.0 mi NE 6.9 mph - N/A   Mostly Cloudy
3:53 AM 45.0 °F 39.3 °F 35.1 °F 68% 30.36 in 10.0 mi North 11.5 mph - N/A   Partly Cloudy
4:53 AM 45.0 °F 39.3 °F 32.0 °F 60% 30.37 in 10.0 mi North 11.5 mph - N/A   Clear
5:53 AM 44.1 °F 37.7 °F 30.9 °F 60% 30.37 in 10.0 mi NNE 12.7 mph - N/A   Clear
6:53 AM 44.1 °F 38.6 °F 32.0 °F 63% 30.40 in 10.0 mi NNE 10.4 mph - N/A   Scattered Clouds
7:53 AM 44.1 °F 37.1 °F 30.9 °F 60% 30.42 in 10.0 mi NNE 15.0 mph - N/A   Mostly Cloudy
8:53 AM 44.1 °F 37.7 °F 30.9 °F 60% 30.43 in 10.0 mi NNE 12.7 mph - N/A   Overcast
9:53 AM 46.0 °F 40.6 °F 30.9 °F 56% 30.45 in 10.0 mi NE 11.5 mph - N/A   Mostly Cloudy
10:53 AM 48.0 °F - 33.1 °F 56% 30.45 in 10.0 mi NE 10.4 mph - N/A   Mostly Cloudy
11:53 AM 48.0 °F - 33.1 °F 56% 30.45 in 10.0 mi NE 6.9 mph - 0.00 in   Mostly Cloudy
12:53 PM 48.9 °F - 34.0 °F 56% 30.41 in 10.0 mi NNE 9.2 mph - N/A   Partly Cloudy
1:53 PM 51.1 °F - 34.0 °F 52% 30.38 in 10.0 mi ENE 5.8 mph - N/A   Mostly Cloudy
2:53 PM 51.1 °F - 33.1 °F 50% 30.38 in 10.0 mi Calm Calm - N/A   Mostly Cloudy
3:53 PM 53.1 °F - 30.9 °F 43% 30.38 in 10.0 mi North 9.2 mph - N/A   Mostly Cloudy
4:53 PM 51.1 °F - 36.0 °F 56% 30.37 in 10.0 mi North 9.2 mph - N/A   Overcast
5:53 PM 48.9 °F - 37.0 °F 64% 30.37 in 10.0 mi North 8.1 mph - 0.00 in   Mostly Cloudy
6:53 PM 46.9 °F - 36.0 °F 66% 30.40 in 10.0 mi NNW 9.2 mph - 0.00 in   Mostly Cloudy
7:53 PM 46.9 °F - 36.0 °F 66% 30.40 in 10.0 mi North 9.2 mph - N/A   Overcast
8:53 PM 46.9 °F - 34.0 °F 61% 30.41 in 10.0 mi NNE 9.2 mph - N/A   Overcast
9:53 PM 46.9 °F - 33.1 °F 59% 30.41 in 10.0 mi NNE 9.2 mph - N/A   Mostly Cloudy
10:53 PM 46.0 °F 41.4 °F 30.0 °F 54% 30.42 in 10.0 mi NNE 9.2 mph - N/A   Clear
11:53 PM 45.0 °F 39.3 °F 30.9 °F 58% 30.41 in 10.0 mi NE 11.5 mph - N/A   Scattered Clouds